Regional Weather Roundup
Issued by NWS

Home | Current Version | Previous Version | Graphics & Text | Print | Product List | Glossary On
Versions: 1 2 3 4 5 6 7 8 9 10 11 12 13 14 15 16 17 18 19 20 21 22 23 24 25 26 27 28 29 30 31 32 33 34 35 36 37 38 39 40 41 42 43 44 45 46 47 48 49 50
000
ASUS43 KTOP 052008
RWRKS

WEATHER ROUNDUP FOR KANSAS
NATIONAL WEATHER SERVICE GOODLAND KS
200 PM CST MON DEC 05 2016

NOTE:  "FAIR" INDICATES FEW OR NO CLOUDS BELOW 12,000 FEET WITH NO
SIGNIFICANT WEATHER AND/OR OBSTRUCTIONS TO VISIBILITY.

KSZ001>006-013>018-027>032-041>047-052100-
NORTHWEST KANSAS

CITY           SKY/WX    TMP DP  RH WIND       PRES   REMARKS
GOODLAND       SUNNY     61  18  18 NE14      29.55S
HAYS           SUNNY     53  33  46 S14       29.60F
HILL CITY      SUNNY     51  28  41 E7        29.58S
RUSSELL        SUNNY     56  34  43 S16G25    29.59S
$$

KSZ061>065-074>080-084>089-052100-
SOUTHWEST KANSAS

CITY           SKY/WX    TMP DP  RH WIND       PRES   REMARKS
DODGE CITY     SUNNY     57  27  31 S20G26    29.56F
ELKHART          N/A     67  24  19 N6          N/A
GARDEN CITY    SUNNY     54  31  41 S14       29.53F
GREAT BEND     SUNNY     54  36  50 S23       29.59F
LIBERAL        SUNNY     57  34  41 S14       29.56F
PRATT          SUNNY     51  29  42 S24G35    29.60F
$$

KSZ066>073-081>083-090>101-052100-
SOUTHEAST KANSAS

CITY           SKY/WX    TMP DP  RH WIND       PRES   REMARKS
CHANUTE        SUNNY     52  38  58 SE14      29.74F
COFFEYVILLE    MOSUNNY   49  40  71 S17       29.79F
HUTCHINSON     SUNNY     53  34  48 S24       29.65F
MEDICINE LODGE   N/A     53  32  44 S22G30    29.62F
NEWTON         SUNNY     52  34  50 S22G31    29.66F
PARSONS        SUNNY     50  38  63 S9G20     29.77F
WICHITA INTL   MOSUNNY   53  36  52 S21G31    29.66F
WICHITA JABRA  SUNNY     53  35  50 S22G28    29.67F
WICHITA MCCONL SUNNY     53  35  49 S21G30    29.67F
WINFIELD       SUNNY     54  35  48 S17       29.71F
$$

KSZ007>012-019>026-033>040-048>060-102>105-052100-
NORTHEAST KANSAS

CITY           SKY/WX    TMP DP  RH WIND       PRES   REMARKS
CONCORDIA      SUNNY     53  35  50 S22       29.64S
EMPORIA        SUNNY     51  34  52 S20G26    29.71F
LAWRENCE       SUNNY     50  38  63 SE13G21   29.76F
MANHATTAN      SUNNY     56  32  40 S20G33    29.66F
MARYSVILLE     SUNNY     54  34  47 S15G23    29.67S
OLATHE IND     SUNNY     50  37  61 S14       29.77F
OLATHE EXE     SUNNY     49  35  58 S17       29.77F
SALINA         SUNNY     54  33  45 S20G36    29.64F
TOPEKA BILLARD SUNNY     51  38  60 S15       29.75F
TOPEKA FORBES  SUNNY     52  37  56 S15G22    29.74F
$$




USA.gov is the U.S. government's official web portal to all federal, state and local government web resources and services.